Location: Cactus School
(34.5700°N, 118.0931°W)
Time: 03:27:54
(UTC-08:00)

A-11 Canister half - Pass Details

Date: 19 November 2019
Orbit: 1515 x 1685 km, 47.2° (Epoch: 06 December)

Event Time Altitude Azimuth Distance (km) Brightness Sun altitude
Rises 19:57:20 0° 281° (W) 4,917 12.5 -39.3°
Reaches altitude 10° 20:00:49 10° 289° (WNW) 3,940 11.8 -40.1°
Enters shadow 20:09:42 40° 350° (N) 2,319 9.8 -41.9°
